Stations météo

réclame
Mon MeteoGroup
Mierkenis, Suède (2121): Température de l'air & dewpoint: 15.01.2019 17:00:00 - 21.01.2019 17:00:00 (CET)Mierkenis, Suède (2121): Vitesse du vent & gusts: 15.01.2019 17:00:00 - 21.01.2019 17:00:00 (CET)Mierkenis, Suède (2121): Direction du vent: 15.01.2019 17:00:00 - 21.01.2019 17:00:00 (CET)Mierkenis, Suède (2121): reduced air pressure: 15.01.2019 17:00:00 - 21.01.2019 17:00:00 (CET)Mierkenis, Suède (2121): visibility: 15.01.2019 17:00:00 - 21.01.2019 17:00:00 (CET)Mierkenis, Suède (2121): Quantités de précipitations: 15.01.2019 17:00:00 - 21.01.2019 17:00:00 (CET)
Date & Time tt [°C] td [°C] ff [km/h] ff [knt] fx [km/h] fx [knt] dd ppp [hPa] vv [km] rr [mm]
21.01.2019 17:00:00 - - - - - - - - - -
21.01.2019 16:00:00 -22,6 -25,1 8 5 14 8 WNW 1015,2 15 0,0
21.01.2019 15:00:00 -22,6 -25,2 8 4 13 7 NW 1015,5 50 0,0
21.01.2019 14:00:00 -21,9 -24,4 8 4 14 7 NW 1015,5 50 0,0
21.01.2019 13:00:00 -18,9 -20,9 8 5 14 7 NNW 1015,3 48 0,0
21.01.2019 12:00:00 -19,0 -20,9 5 3 11 6 NNW 1015,5 50 0,0
21.01.2019 11:00:00 -18,0 -20,0 6 3 9 5 W 1015,2 50 0,0
21.01.2019 10:00:00 -19,4 -21,4 0 0 9 5 N 1015,2 50 0,0
21.01.2019 09:00:00 -21,4 -23,4 4 2 10 6 NW 1015,3 36 0,0
21.01.2019 08:00:00 -20,4 -22,5 4 2 10 6 N 1014,7 50 -
21.01.2019 07:00:00 -24,1 -27,0 6 3 11 6 NNW 1015,1 50 0,0
21.01.2019 06:00:00 -24,1 -26,7 8 4 11 6 WNW 1014,9 50 0,0
21.01.2019 05:00:00 -23,3 -25,8 6 4 10 5 NW 1014,7 50 0,0
21.01.2019 04:00:00 -20,9 -23,2 5 3 11 6 NNW 1014,3 50 0,0
21.01.2019 03:00:00 -21,1 -23,2 5 3 11 6 NW 1014,2 50 -
21.01.2019 02:00:00 -18,8 -20,7 4 2 8 5 NW 1013,8 50 0,0
21.01.2019 01:00:00 -17,8 -19,7 3 1 7 4 NNW 1013,5 50 0,0
21.01.2019 00:00:00 -17,1 -18,9 3 2 11 6 NW 1013,5 50 -
20.01.2019 23:00:00 -17,1 -18,9 3 1 12 7 NW 1013,5 50 0,0
20.01.2019 22:00:00 -15,6 -17,1 3 2 23 12 NNW 1012,9 43 0,0
20.01.2019 21:00:00 -13,1 -14,7 6 3 27 15 NW 1012,4 50 0,0
20.01.2019 20:00:00 -9,9 -12,2 16 9 27 15 NNW 1011,5 50 0,0
20.01.2019 19:00:00 -10,5 -12,9 13 7 23 12 NNW 1011,5 44 -
20.01.2019 18:00:00 -10,8 -13,7 11 6 31 17 NW 1011,2 50 0,0
20.01.2019 17:00:00 -8,9 -11,6 14 8 31 17 NNW 1010,8 50 0,0
20.01.2019 16:00:00 -8,8 -11,9 15 8 24 13 NNW 1010,5 50 0,0
20.01.2019 15:00:00 -8,7 -11,8 13 7 26 14 NW 1010,5 50 0,0
20.01.2019 14:00:00 -9,7 -12,3 8 4 26 14 WNW 1010,5 50 0,0
20.01.2019 13:00:00 -8,6 -12,1 14 8 26 14 NW 1010,2 31 0,0
20.01.2019 12:00:00 -8,7 -12,2 8 4 20 11 NW 1010,0 33 0,0
20.01.2019 11:00:00 -10,0 -12,8 11 6 20 11 NW 1010,2 50 0,0
20.01.2019 10:00:00 -11,8 -14,4 12 7 19 10 WNW 1010,2 50 0,0
20.01.2019 09:00:00 -10,3 -12,6 10 5 17 9 WNW 1009,6 50 0,0
20.01.2019 08:00:00 -11,0 -13,6 12 6 24 13 WNW 1009,6 50 0,0
20.01.2019 07:00:00 -11,6 -15,1 10 5 24 13 NW 1009,4 50 0,0
20.01.2019 06:00:00 -9,8 -13,2 14 8 22 12 NW 1008,9 50 0,0
20.01.2019 05:00:00 -10,5 -13,3 11 6 22 12 NNW 1008,9 50 0,0
20.01.2019 04:00:00 -12,4 -14,3 8 5 22 12 N 1008,8 38 0,0
20.01.2019 03:00:00 -13,6 -16,5 6 3 30 16 WNW 1008,7 43 0,0
20.01.2019 02:00:00 -9,1 -13,7 18 10 30 16 NW 1007,5 50 0,0
20.01.2019 01:00:00 -9,5 -12,9 9 5 24 13 NNW 1007,2 50 0,0
20.01.2019 00:00:00 -10,1 -12,7 14 8 22 12 WNW 1006,8 50 0,0
19.01.2019 23:00:00 -8,9 -12,0 14 8 27 14 NNW 1006,2 50 0,0
19.01.2019 22:00:00 -8,6 -11,9 16 9 32 18 NW 1005,5 10 0,0
19.01.2019 21:00:00 -9,4 -12,8 13 7 32 18 NNW 1004,7 13 0,0
19.01.2019 20:00:00 -9,0 -13,1 14 7 29 16 WNW 1003,7 49 0,0
19.01.2019 19:00:00 -9,0 -12,8 14 7 34 19 NW 1003,2 33 0,0
19.01.2019 18:00:00 -10,1 -12,7 13 7 34 19 NW 1002,8 27 0,0
19.01.2019 17:00:00 -9,9 -12,8 17 9 24 13 NNW 1002,1 50 0,0
19.01.2019 16:00:00 -14,4 -16,1 12 6 23 12 NW 1002,5 36 0,0
19.01.2019 15:00:00 -13,8 -16,2 9 5 37 20 W 1001,9 18 0,0
19.01.2019 14:00:00 -9,0 -12,5 14 8 36 19 NW 1000,9 50 0,0
19.01.2019 13:00:00 -9,1 -12,2 18 10 37 20 NNW 1000,2 31 0,0
19.01.2019 12:00:00 -9,5 -12,0 16 9 30 16 NNW 999,7 15 0,0
19.01.2019 11:00:00 -11,1 -13,6 13 7 28 15 WNW 999,6 50 0,0
19.01.2019 10:00:00 -15,2 -17,1 10 6 18 10 WNW 999,8 50 0,0
19.01.2019 09:00:00 -17,2 -19,3 14 7 16 9 NNW 999,7 27 0,0
19.01.2019 08:00:00 -14,8 -16,8 10 5 14 8 NNW 998,8 50 0,0
19.01.2019 07:00:00 -15,1 -17,2 0 0 14 8 N 998,8 50 0,0
19.01.2019 06:00:00 -14,8 -16,5 9 5 16 9 NW 998,5 50 0,0
19.01.2019 05:00:00 -14,4 -16,2 3 1 19 10 NNE 998,9 50 0,0
19.01.2019 04:00:00 -12,1 -14,8 11 6 19 10 W 998,6 50 0,0
19.01.2019 03:00:00 -13,2 -15,6 10 5 18 10 NNW 998,8 50 0,0
19.01.2019 02:00:00 -13,7 -15,8 3 2 20 11 WSW 999,1 50 0,0
19.01.2019 01:00:00 -9,8 -12,6 13 7 23 12 NW 998,8 50 0,0
19.01.2019 00:00:00 -8,3 -10,2 14 8 23 12 NW 998,7 5 0,0
18.01.2019 23:00:00 -8,1 -9,5 14 8 22 12 NNW 998,6 1,5 0,0
18.01.2019 22:00:00 -8,7 -10,5 11 6 27 15 NNW 998,5 42 0,0
18.01.2019 21:00:00 -7,2 -8,8 18 10 27 15 N 998,3 1,8 0,1
18.01.2019 20:00:00 -7,6 -9,7 13 7 23 13 NW 998,1 14 0,1
18.01.2019 19:00:00 -6,9 -9,1 14 8 30 16 NNW 997,6 28 0,0
18.01.2019 18:00:00 -6,7 -8,5 15 8 30 16 NNW 997,2 3,3 0,2
18.01.2019 17:00:00 -6,6 -8,3 15 8 40 21 NNW 996,8 1,8 0,3
18.01.2019 16:00:00 -6,3 -8,4 19 10 40 21 NW 996,2 16 0,1
18.01.2019 15:00:00 - - - - 38 20 - - - -
18.01.2019 14:00:00 -6,5 -7,6 15 8 32 18 NW 995,1 0,5 0,4
18.01.2019 13:00:00 -6,2 -7,9 15 8 36 20 NNW 994,7 4,5 0,5
18.01.2019 12:00:00 -6,1 -7,3 17 9 36 20 NNW 994,5 0,7 0,3
18.01.2019 11:00:00 -6,2 -7,7 16 9 34 18 NNW 993,9 1,2 0,2
18.01.2019 10:00:00 -6,2 -7,9 14 8 36 20 NW 993,6 1,3 0,2
18.01.2019 09:00:00 -6,0 -7,2 19 10 36 20 NW 993,0 0,6 0,4
18.01.2019 08:00:00 -6,1 -7,6 14 8 25 13 NNW 992,2 2,6 0,2
18.01.2019 07:00:00 -6,7 -7,9 11 6 22 12 NNW 991,9 0,9 0,4
18.01.2019 06:00:00 -11,1 -12,9 4 2 25 14 NNW 992,5 5 0,0
18.01.2019 05:00:00 -9,7 -12,7 7 4 26 14 NNW 992,4 50 0,0
18.01.2019 04:00:00 -8,5 -12,1 13 7 26 14 NW 992,0 50 0,0
18.01.2019 03:00:00 -8,6 -12,9 12 7 26 14 NW 991,9 50 0,0
18.01.2019 02:00:00 -8,8 -12,4 14 8 26 14 NW 991,6 15 0,0
18.01.2019 01:00:00 -9,5 -11,8 6 3 25 13 NW 991,5 8 0,0
18.01.2019 00:00:00 -14,0 -15,1 2 1 11 6 NW 991,7 50 0,0
17.01.2019 23:00:00 -13,5 -15,2 5 3 21 11 W 991,1 50 0,0
17.01.2019 22:00:00 -9,1 -12,4 11 6 21 11 WNW 990,0 50 0,0
17.01.2019 21:00:00 -8,8 -11,5 11 6 21 11 WNW 989,7 28 0,0
17.01.2019 20:00:00 -8,4 -10,8 5 3 21 11 NW 989,5 22 0,0
17.01.2019 19:00:00 -9,7 -11,6 6 4 19 10 NW 989,1 12 0,0
17.01.2019 18:00:00 -9,5 -12,1 9 5 20 11 WNW 988,9 50 0,0
17.01.2019 17:00:00 -9,1 -12,2 11 6 24 13 NW 988,8 50 0,0
17.01.2019 16:00:00 -9,7 -12,7 11 6 25 14 NW 988,6 50 0,0
17.01.2019 15:00:00 -9,8 -12,3 14 8 25 14 NW 988,2 50 0,0
17.01.2019 14:00:00 -12,3 -13,9 2 1 30 16 ENE 988,5 27 0,0
17.01.2019 13:00:00 -12,6 -14,2 5 3 30 16 NW 989,1 45 0,0
17.01.2019 12:00:00 -11,1 -12,8 17 9 31 17 NW 989,2 31 0,0
17.01.2019 11:00:00 -13,3 -15,0 5 3 36 19 NNW 989,3 45 0,0
17.01.2019 10:00:00 -11,8 -13,5 21 11 36 19 NNW 989,1 50 0,0
17.01.2019 09:00:00 -15,6 -17,1 9 5 14 8 NW 989,5 20 0,0
17.01.2019 08:00:00 -18,3 -20,3 5 3 14 8 WNW 989,8 10 0,0
17.01.2019 07:00:00 -15,9 -17,8 6 3 14 8 N 989,4 3,8 0,0
17.01.2019 06:00:00 -18,0 -19,9 8 4 16 9 NNW 989,8 25 0,0
17.01.2019 05:00:00 -18,8 -21,1 8 4 16 9 NW 990,1 49 0,0
17.01.2019 04:00:00 -21,0 -23,4 6 3 13 7 NNW 990,6 50 0,0
17.01.2019 03:00:00 -22,8 -25,3 9 5 13 7 W 990,9 50 0,0
17.01.2019 02:00:00 -26,1 -28,9 4 2 18 10 WNW 991,7 50 0,0
17.01.2019 01:00:00 -26,1 -28,8 4 2 18 10 NNW 991,7 50 0,0
17.01.2019 00:00:00 -26,6 -29,4 10 5 15 8 NNW 992,2 50 0,0
16.01.2019 23:00:00 -27,6 -30,5 7 4 11 6 NW 992,8 50 0,0
16.01.2019 22:00:00 -28,6 -31,6 8 5 12 7 NW 993,3 50 0,0
16.01.2019 21:00:00 -28,1 -31,0 8 4 13 7 NW 993,3 50 0,0
16.01.2019 20:00:00 -28,3 -31,3 6 4 13 7 WNW 992,9 50 0,0
16.01.2019 19:00:00 -27,8 -30,7 8 4 12 7 WNW 993,1 50 0,0
16.01.2019 18:00:00 -28,5 -31,5 10 5 13 7 NNW 993,3 50 0,0
16.01.2019 17:00:00 -26,9 -29,7 8 4 13 7 NW 993,2 50 0,0
16.01.2019 16:00:00 -26,7 -29,6 7 4 13 7 NW 993,5 50 0,0
16.01.2019 15:00:00 -25,9 -28,6 7 4 13 7 NW 993,6 46 0,0
16.01.2019 14:00:00 -25,1 -27,7 10 5 14 7 NW 993,6 50 0,0
16.01.2019 13:00:00 -25,8 -28,7 11 6 14 8 NW 994,1 50 0,0
16.01.2019 12:00:00 -23,6 -26,1 6 3 13 7 NNW 994,0 50 0,0
16.01.2019 11:00:00 -24,2 -26,8 7 4 16 8 NNW 994,3 50 0,0
16.01.2019 10:00:00 -22,4 -24,8 4 2 16 8 NW 994,2 19 0,0
16.01.2019 09:00:00 - - - - 14 7 - - - -
16.01.2019 08:00:00 -21,3 -23,5 6 4 10 5 WNW 994,0 50 0,0
16.01.2019 07:00:00 -21,0 -23,3 3 2 13 7 NNW 994,2 50 0,0
16.01.2019 06:00:00 -20,3 -22,4 8 4 13 7 NW 993,9 50 0,0
16.01.2019 05:00:00 -22,1 -24,7 7 4 13 7 WNW 994,5 50 0,0
16.01.2019 04:00:00 -20,6 -22,9 9 5 13 7 NNW 994,7 50 0,0
16.01.2019 03:00:00 -21,5 -24,0 8 4 15 8 N 994,9 50 0,0
16.01.2019 02:00:00 -23,8 -26,4 11 6 15 8 NW 995,3 42 0,0
16.01.2019 01:00:00 -20,8 -22,9 8 4 14 8 NW 995,1 6 0,2
16.01.2019 00:00:00 -25,7 -28,5 9 5 16 9 NW 995,7 50 -
15.01.2019 23:00:00 -25,3 -28,0 10 5 16 9 NW 995,6 50 0,0
15.01.2019 22:00:00 -26,2 -28,8 8 4 16 9 NW 995,7 50 0,0
15.01.2019 21:00:00 -26,5 -29,3 10 6 16 9 NNW 995,6 50 0,0
15.01.2019 20:00:00 -27,7 -30,8 9 5 16 8 NW 995,6 50 0,0
15.01.2019 19:00:00 -25,4 -27,8 7 4 16 8 NW 995,0 50 0,0
15.01.2019 18:00:00 -25,8 -28,4 6 3 13 7 WNW 995,1 50 0,0
15.01.2019 17:00:00 -25,8 -28,6 10 6 12 7 NW 995,0 50 0,0

tt = Température de l'air
td = dewpoint
ff = Vitesse du vent
fx = gusts
dd = Direction du vent
ppp = reduced air pressure
vv = visibility
rr = Quantités de précipitations

stations d'obs. à proximité